Wind_Speed
3 2 4 5 2 4 2 8 7 5 6 7 7 6 7 8 4 5 7 9 11 14 13 14 16 14 11 8 10 4 2 18 19 16 14 12 9 6 4 3 3 2 2 3 6 7 4 4 7
1 2 0 2 4 1 2 1 7 5 6 8 7 6 8 9 9 7 7 9 11 13 11 16 17 14 11 9 8 4 3 18 21 19 19 15 9 7 6 6 3 2 4 6 7 2 4 7 6
8 5 4 3 1 4 1 3 2 5 6 8 9 8 6 10 4 4 9 11 9 12 11 15 16 13 10 10 11 8 8 20 22 21 16 13 10 7 5 5 4 1 3 6 1 4 9 10 9
13 11 9 7 6 6 3 4 2 4 6 7 9 9 10 12 9 7 13 13 10 11 11 16 15 13 10 10 12 12 15 18 19 13 13 14 11 9 7 6 3 1 4 1 6 7 11 11 11
12 13 7 8 10 7 8 6 3 4 5 6 10 9 13 13 9 8 11 13 10 10 10 12 16 17 15 15 14 14 16 17 13 13 12 13 11 12 9 7 3 2 2 6 6 8 10 10 11
13 12 6 14 16 10 9 9 3 5 5 8 10 9 14 13 8 7 9 12 10 9 12 11 14 19 9 10 13 15 12 12 8 9 11 9 10 10 7 6 3 1 4 6 6 7 8 11 13
9 13 9 12 11 13 13 18 6 6 5 8 9 6 10 13 8 6 9 11 10 8 8 8 16 18 13 10 11 12 8 9 9 5 4 9 5 8 6 5 2 4 6 5 6 7 12 13 17
11 16 9 8 7 10 20 15 10 7 4 7 11 8 10 14 11 8 8 7 10 8 7 9 11 14 14 15 15 13 10 10 10 8 4 4 5 3 3 3 4 4 4 5 8 9 15 18 17
12 11 7 2 7 12 24 19 12 11 4 6 10 9 12 14 10 4 5 7 8 8 9 7 10 13 13 13 13 12 12 12 11 11 10 8 6 5 3 5 6 5 7 9 10 14 19 17 15
8 8 7 6 4 6 20 15 17 7 6 7 10 11 12 13 10 7 4 4 7 9 8 9 8 9 11 11 11 11 11 11 11 11 11 10 8 6 7 10 8 8 10 12 16 20 17 15 14
6 4 4 6 10 9 28 14 13 10 7 8 8 10 13 13 10 7 3 7 3 8 9 11 10 8 10 11 10 11 10 9 9 11 12 11 10 10 12 12 12 10 14 16 21 18 15 14 15
6 4 3 6 2 5 12 7 5 7 8 10 10 7 12 15 10 8 5 4 1 11 11 11 10 9 8 10 10 10 10 9 8 12 14 14 13 14 13 11 10 13 18 21 20 17 15 14 13
3 4 5 6 10 10 11 6 8 7 10 10 11 10 11 13 11 8 6 4 2 13 15 13 11 10 9 9 9 9 9 9 9 10 12 12 12 11 11 11 14 18 21 21 18 17 13 12 15
8 3 4 9 9 11 10 8 13 10 13 11 12 10 11 12 12 8 6 6 8 15 15 13 11 11 10 9 9 9 12 7 10 13 12 10 10 11 10 12 16 19 21 19 17 15 12 12 12
9 5 5 7 9 8 8 6 9 8 14 10 14 11 8 9 10 8 8 7 6 11 13 11 11 11 12 13 6 9 10 11 12 15 13 11 11 12 10 14 17 19 18 17 15 12 10 9 13
7 4 8 7 8 9 10 7 6 7 7 13 10 10 8 8 9 8 10 9 5 8 11 9 12 12 11 9 7 9 9 11 13 15 14 11 10 12 13 15 16 18 16 15 12 10 8 10 14
9 11 13 8 5 6 5 6 5 6 10 14 6 9 9 7 7 7 6 11 8 9 12 12 12 12 12 10 8 7 10 14 15 16 16 10 12 13 16 16 14 17 15 12 10 8 7 8 10
8 11 12 5 4 2 3 5 6 6 10 14 11 10 10 8 6 5 7 11 11 12 11 13 10 15 13 9 8 7 11 17 17 19 16 13 13 13 16 17 15 16 14 12 9 7 5 5 10
9 11 12 8 11 7 4 2 2 7 12 12 10 8 9 8 9 11 10 11 13 13 11 9 9 10 8 8 8 7 16 18 18 19 18 17 13 13 17 17 17 18 16 13 9 5 3 12 12
7 10 10 9 8 9 6 4 3 4 15 15 15 11 9 8 12 11 13 14 15 15 15 12 10 10 11 9 10 11 14 16 17 16 21 19 14 13 16 19 18 17 15 13 10 6 3 6 6
8 6 7 10 11 9 9 8 6 4 11 14 18 12 12 12 9 10 12 14 16 15 16 15 13 9 12 13 12 12 11 12 18 16 20 21 14 14 16 19 18 17 15 14 12 10 5 4 3
7 5 8 8 10 9 8 5 7 5 5 13 18 23 18 17 13 12 10 11 15 16 16 15 14 12 11 11 11 12 10 13 13 15 17 21 16 14 16 18 18 17 16 14 13 11 9 5 3
3 3 10 12 12 13 12 10 9 7 5 5 15 18 15 17 16 13 10 12 12 14 16 16 15 12 11 11 11 11 13 16 16 17 16 19 15 15 16 17 17 16 16 16 15 13 10 6 2
5 6 8 9 9 10 13 15 16 11 8 5 5 13 16 15 16 12 13 12 12 12 13 15 15 16 13 12 10 12 16 17 18 21 20 17 19 19 17 18 16 16 16 15 14 12 11 6 4
13 12 9 7 6 7 9 11 15 17 17 12 11 12 13 20 19 15 11 15 18 16 14 15 16 17 16 13 12 12 14 16 17 18 20 19 21 20 18 20 15 16 18 17 15 12 10 9 6
11 13 13 10 7 7 5 7 10 11 10 11 12 14 16 17 26 22 16 17 17 18 15 17 18 19 18 17 16 13 14 13 14 17 20 21 23 22 19 21 19 16 18 19 18 16 11 10 8
8 11 12 9 8 8 5 6 10 11 10 6 9 13 15 10 29 27 23 17 18 16 19 20 19 20 20 19 19 18 16 15 15 16 17 18 19 21 22 21 21 20 19 19 18 16 16 13 11
10 8 9 9 8 8 6 6 9 10 10 8 7 9 16 16 14 25 22 26 25 24 23 21 21 21 21 21 20 20 19 18 17 16 15 15 16 17 18 18 18 19 17 17 18 18 16 12 11
8 4 4 8 9 7 7 7 5 9 10 10 11 9 11 16 20 19 21 23 28 29 26 23 21 21 24 23 21 22 22 21 19 20 17 15 14 15 14 13 12 12 12 14 14 15 14 14 14
15 13 11 9 6 4 4 7 6 7 7 10 10 11 13 13 16 17 20 19 20 28 29 23 24 21 23 24 24 25 22 23 21 21 19 16 15 14 13 12 11 12 12 12 12 11 12 11 12
Wind_Direction
38 82 96 114 115 81 125 64 73 68 66 85 74 76 74 71 96 140 168 193 196 191 185 174 165 168 166 183 189 178 236 195 186 187 179 176 171 148 160 171 156 115 54 339 315 303 256 153 104
31 62 57 109 112 106 204 100 39 56 84 81 85 78 82 76 91 118 163 156 172 174 173 180 173 174 173 173 168 165 189 185 182 181 181 179 173 172 169 169 185 20 350 329 321 290 118 114 98
12 359 320 279 253 144 89 101 343 8 70 77 86 78 77 80 73 80 92 91 112 163 171 176 169 168 175 172 168 169 157 180 178 178 188 182 192 176 161 145 134 77 338 317 324 125 100 95 95
21 348 294 258 242 137 146 101 39 17 60 74 92 96 79 71 67 99 87 76 87 129 157 174 168 158 167 180 179 186 176 159 173 177 186 194 209 195 179 137 93 6 300 307 131 110 99 95 104
336 336 296 218 185 158 163 107 53 60 62 71 100 106 93 81 77 87 90 87 83 109 137 164 168 164 166 205 187 189 183 175 174 186 195 208 221 202 166 132 133 270 275 137 104 80 84 104 112
337 329 253 211 176 169 177 138 73 67 46 84 88 111 101 98 91 97 100 96 95 103 121 142 170 176 159 188 184 194 170 164 155 194 212 212 219 143 122 109 86 89 132 92 71 83 101 108 95
28 27 97 160 194 179 155 143 99 90 57 94 89 122 113 93 97 104 117 112 109 109 109 97 127 137 133 132 164 170 155 146 140 168 184 182 149 106 96 88 117 138 102 71 98 108 106 96 85
24 47 78 115 170 213 208 213 127 83 57 91 106 97 93 93 93 117 128 117 127 124 122 110 104 123 118 117 122 124 132 153 147 171 164 120 76 83 98 115 129 100 87 103 94 98 96 91 87
26 37 74 172 293 242 212 188 139 98 85 101 99 96 88 95 99 106 120 135 137 138 142 139 127 122 115 117 125 127 125 122 137 157 161 148 118 92 102 134 127 124 117 99 99 94 95 95 91
40 20 4 359 40 141 181 150 160 129 118 100 103 102 94 100 108 128 142 157 151 151 157 153 151 140 129 121 119 124 122 130 141 152 153 148 161 169 142 129 135 131 110 105 98 102 106 101 86
7 356 356 46 123 90 148 140 140 152 107 90 93 104 104 104 108 111 160 155 161 178 171 159 154 159 152 143 136 129 116 116 129 143 145 150 146 138 132 132 132 115 111 106 108 115 109 89 75
65 40 36 47 48 169 150 150 146 130 102 104 107 101 110 115 114 111 107 184 196 187 172 154 148 157 166 156 150 134 123 120 122 129 132 131 134 132 132 126 117 120 120 115 122 114 96 82 67
143 56 63 65 73 165 149 170 148 141 118 106 118 111 105 112 107 106 111 105 90 177 162 149 154 150 167 170 156 143 139 129 133 134 132 134 133 124 126 116 117 122 121 126 119 107 97 76 57
139 117 56 65 87 96 136 121 157 152 163 127 115 110 110 115 113 106 114 108 87 143 157 154 154 141 155 155 147 147 152 144 142 146 145 143 135 131 120 121 121 126 130 122 116 109 92 68 60
147 141 121 90 87 118 114 69 145 119 141 138 118 113 110 111 115 120 123 112 115 149 146 156 154 141 138 139 120 163 172 153 151 146 141 134 133 127 128 124 130 132 126 110 111 107 90 70 54
129 134 187 152 124 116 130 151 213 146 182 148 109 111 119 105 121 111 127 121 109 149 175 163 141 152 147 152 138 164 162 157 161 152 145 136 142 142 134 135 138 135 122 110 112 108 87 67 55
160 149 141 121 126 133 156 150 161 181 206 170 142 134 145 106 109 114 120 131 120 137 137 160 144 142 130 145 154 164 183 175 164 154 154 150 155 143 145 144 144 137 130 130 126 120 90 66 55
175 181 195 149 173 247 159 169 169 172 199 196 170 157 154 140 118 143 126 138 138 135 141 147 153 151 148 150 144 148 169 165 169 168 165 152 154 158 148 149 153 146 144 145 141 131 95 43 49
189 208 218 227 235 242 199 155 143 193 191 188 179 172 184 182 150 159 143 142 149 155 162 167 161 160 148 154 141 133 155 164 168 169 175 172 155 158 157 162 157 154 162 161 154 157 102 64 63
192 213 216 208 212 200 197 211 213 197 193 198 186 212 188 195 173 172 159 154 160 161 165 179 179 173 167 167 158 151 151 153 155 158 179 187 182 175 169 175 170 159 164 166 165 174 157 80 60
173 188 191 206 194 194 199 224 234 233 192 205 196 192 188 194 202 178 168 167 166 164 165 174 185 185 164 170 162 150 152 149 168 148 162 171 167 175 182 180 179 171 171 176 181 182 177 142 101
177 181 206 210 209 210 207 219 221 216 205 209 217 224 191 186 205 202 182 179 175 172 169 172 189 190 176 174 174 181 158 155 159 178 167 166 166 175 185 185 184 183 183 182 187 184 179 166 114
194 178 206 225 221 228 237 255 253 214 221 235 227 228 186 202 198 196 195 187 171 187 174 168 188 193 190 194 182 187 174 164 162 164 156 177 180 181 185 184 182 188 191 189 192 188 185 177 197
243 251 179 193 213 229 248 248 253 262 246 229 248 210 196 208 208 200 198 192 180 188 183 176 194 193 190 194 193 185 180 172 174 175 178 178 183 186 184 179 179 187 196 197 200 192 189 186 197
261 259 252 239 227 236 247 247 243 251 265 261 242 239 217 203 212 236 233 206 183 190 190 193 198 199 192 193 204 200 189 187 181 185 188 186 186 189 190 191 195 200 198 201 212 214 223 226 220
241 239 251 260 266 255 235 214 234 251 257 283 263 247 240 233 221 222 217 215 209 202 204 204 201 207 205 207 207 204 206 198 191 189 189 193 195 193 195 200 204 201 203 204 211 217 229 219 227
245 249 255 255 261 274 263 243 233 245 272 311 270 253 249 238 210 218 216 225 227 225 208 200 203 206 204 212 216 210 205 205 196 196 193 195 195 198 204 204 205 205 202 211 221 220 230 237 237
283 286 269 275 283 304 325 270 251 245 259 282 286 273 254 257 253 217 231 235 238 218 211 202 202 207 209 210 218 215 216 206 204 202 200 198 195 199 202 207 214 223 219 218 223 228 230 238 233
252 283 298 277 284 312 359 317 272 259 262 269 268 269 266 269 255 247 242 254 223 212 210 209 207 209 211 210 213 214 211 213 213 212 209 203 197 195 195 202 208 218 221 222 226 227 232 228 230
238 243 262 278 288 294 328 321 354 239 266 277 268 264 264 287 261 271 254 253 242 220 212 216 219 214 217 219 209 208 213 218 221 218 214 209 212 213 205 204 210 216 219 224 223 227 233 234 233
Height
5880 5881 5881 5882 5886 5884 5884 5884 5883 5881 5880 5879 5879 5879 5880 5878 5879 5881 5878 5878 5878 5879 5881 5884 5886 5888 5889 5891 5893 5892 5892 5894 5897 5900 5901 5902 5904 5904 5905 5906 5906 5909 5910 5909 5909 5907 5906 5906 5907
5879 5880 5882 5882 5884 5884 5885 5884 5883 5882 5881 5880 5879 5880 5880 5879 5879 5879 5878 5877 5877 5879 5881 5883 5886 5888 5890 5891 5892 5891 5892 5893 5896 5898 5901 5903 5904 5905 5907 5907 5908 5910 5910 5909 5908 5907 5907 5908 5909
5879 5881 5882 5881 5882 5885 5886 5884 5884 5884 5882 5880 5879 5879 5880 5879 5880 5879 5878 5877 5876 5878 5880 5883 5885 5888 5889 5890 5891 5891 5892 5893 5898 5899 5902 5903 5904 5905 5906 5908 5909 5910 5909 5908 5907 5910 5909 5910 5911
5879 5879 5880 5881 5881 5883 5884 5885 5885 5885 5883 5881 5879 5880 5881 5880 5880 5880 5879 5878 5879 5879 5880 5883 5885 5887 5888 5889 5890 5891 5892 5895 5898 5901 5902 5903 5904 5904 5906 5907 5909 5909 5909 5909 5909 5911 5910 5912 5910
5876 5876 5876 5876 5879 5882 5883 5884 5885 5884 5883 5882 5880 5880 5881 5881 5882 5882 5881 5881 5881 5881 5881 5882 5884 5885 5887 5889 5889 5891 5892 5895 5897 5900 5901 5902 5903 5904 5904 5907 5909 5909 5910 5911 5912 5912 5913 5913 5914
5875 5872 5873 5874 5878 5880 5882 5884 5885 5884 5885 5883 5882 5882 5881 5881 5882 5883 5883 5883 5883 5883 5883 5882 5883 5887 5887 5888 5888 5891 5892 5891 5896 5898 5900 5902 5900 5904 5906 5906 5908 5909 5912 5914 5915 5915 5916 5917 5918
5876 5872 5870 5875 5878 5880 5882 5884 5886 5886 5887 5884 5884 5883 5882 5881 5883 5884 5885 5884 5885 5885 5885 5884 5885 5888 5888 5889 5890 5891 5893 5895 5897 5898 5900 5901 5901 5903 5905 5906 5908 5911 5913 5916 5917 5918 5919 5920 5921
5877 5875 5874 5876 5877 5880 5880 5882 5887 5886 5888 5884 5884 5883 5883 5882 5883 5885 5886 5886 5887 5887 5887 5887 5886 5886 5889 5891 5892 5893 5893 5895 5897 5900 5901 5899 5899 5902 5904 5907 5911 5914 5917 5918 5918 5922 5923 5925 5925
5878 5878 5877 5876 5875 5874 5875 5880 5886 5885 5887 5884 5882 5883 5884 5882 5883 5885 5886 5887 5888 5889 5889 5888 5889 5890 5890 5892 5892 5893 5895 5897 5899 5900 5901 5902 5903 5905 5907 5911 5914 5917 5919 5919 5923 5926 5928 5928 5927
5879 5878 5877 5874 5872 5869 5872 5880 5883 5884 5885 5883 5882 5883 5884 5884 5885 5885 5886 5887 5889 5890 5890 5890 5890 5890 5891 5893 5895 5897 5898 5899 5900 5900 5902 5904 5905 5908 5911 5914 5917 5919 5921 5924 5926 5929 5930 5929 5930
5880 5879 5878 5875 5874 5873 5875 5877 5881 5884 5884 5883 5883 5884 5884 5885 5886 5886 5887 5888 5889 5890 5891 5892 5892 5892 5894 5894 5896 5898 5900 5901 5902 5902 5903 5905 5908 5911 5914 5917 5919 5922 5923 5926 5929 5931 5931 5933 5933
5880 5879 5878 5876 5874 5875 5877 5879 5881 5884 5885 5884 5884 5885 5885 5886 5887 5887 5888 5889 5888 5888 5891 5893 5894 5894 5895 5897 5898 5900 5901 5902 5903 5904 5905 5908 5912 5914 5916 5918 5919 5922 5925 5928 5931 5933 5934 5935 5934
5880 5880 5880 5878 5877 5876 5877 5880 5881 5883 5885 5885 5884 5887 5887 5887 5888 5888 5889 5890 5887 5886 5891 5893 5894 5895 5896 5898 5900 5901 5902 5903 5905 5907 5909 5911 5913 5914 5916 5918 5920 5924 5926 5930 5933 5934 5936 5936 5936
5880 5881 5880 5879 5879 5879 5881 5881 5882 5883 5886 5887 5886 5887 5888 5888 5889 5889 5891 5891 5889 5889 5891 5893 5894 5895 5897 5899 5901 5902 5903 5904 5906 5909 5910 5912 5914 5916 5918 5919 5922 5925 5929 5932 5934 5936 5936 5937 5937
5881 5882 5881 5881 5880 5881 5881 5881 5882 5883 5886 5887 5887 5888 5889 5890 5890 5891 5892 5892 5891 5892 5893 5893 5895 5896 5897 5900 5902 5903 5904 5906 5907 5909 5911 5913 5915 5917 5920 5922 5925 5929 5932 5934 5935 5937 5937 5938 5938
5881 5882 5883 5882 5881 5882 5883 5883 5881 5883 5883 5886 5888 5888 5889 5892 5892 5892 5893 5892 5892 5893 5894 5894 5895 5897 5899 5901 5902 5903 5904 5906 5908 5910 5912 5916 5918 5920 5921 5926 5929 5931 5934 5936 5937 5937 5938 5938 5938
5880 5881 5881 5882 5881 5881 5882 5882 5882 5882 5883 5884 5886 5887 5888 5890 5892 5892 5894 5893 5893 5894 5895 5894 5897 5898 5900 5901 5901 5903 5904 5906 5908 5911 5914 5917 5920 5922 5924 5928 5930 5933 5935 5937 5938 5938 5939 5939 5939
5877 5879 5880 5880 5881 5880 5880 5880 5881 5882 5883 5883 5885 5887 5887 5890 5891 5893 5894 5894 5894 5895 5897 5898 5899 5900 5901 5901 5902 5904 5905 5908 5909 5912 5916 5919 5922 5924 5926 5929 5931 5934 5936 5938 5939 5940 5940 5939 5940
5876 5876 5877 5879 5880 5880 5879 5879 5881 5881 5881 5881 5883 5886 5887 5888 5891 5892 5893 5894 5895 5896 5897 5899 5900 5901 5901 5902 5903 5906 5907 5909 5910 5913 5916 5920 5923 5925 5927 5930 5932 5934 5936 5938 5940 5940 5941 5941 5941
5874 5875 5876 5877 5878 5878 5878 5878 5880 5880 5881 5882 5882 5883 5885 5888 5890 5892 5892 5893 5895 5896 5897 5899 5900 5902 5903 5903 5905 5907 5909 5910 5912 5914 5916 5920 5923 5926 5928 5931 5933 5934 5936 5938 5939 5941 5943 5942 5942
5873 5875 5875 5876 5876 5877 5878 5879 5879 5880 5880 5880 5881 5882 5884 5887 5891 5892 5892 5893 5894 5896 5897 5898 5900 5901 5904 5903 5906 5909 5910 5911 5913 5916 5917 5921 5924 5926 5928 5931 5933 5935 5938 5939 5939 5941 5943 5943 5943
5872 5873 5874 5875 5876 5876 5877 5878 5878 5878 5878 5879 5880 5882 5882 5885 5888 5892 5892 5893 5893 5894 5896 5897 5899 5901 5903 5905 5906 5909 5911 5913 5915 5918 5919 5921 5924 5926 5928 5931 5933 5935 5938 5939 5940 5941 5942 5943 5943
5870 5871 5873 5874 5874 5874 5875 5877 5875 5877 5877 5877 5878 5880 5881 5883 5885 5889 5890 5892 5893 5894 5895 5896 5898 5901 5903 5905 5906 5908 5910 5913 5915 5918 5920 5922 5924 5927 5929 5931 5933 5935 5937 5938 5940 5941 5942 5943 5943
5869 5870 5872 5873 5873 5874 5873 5874 5874 5875 5876 5877 5877 5878 5880 5882 5883 5886 5890 5891 5892 5894 5894 5895 5898 5901 5902 5904 5907 5908 5911 5913 5915 5917 5919 5921 5924 5926 5928 5931 5932 5934 5936 5936 5938 5940 5941 5942 5943
5867 5869 5870 5872 5872 5872 5872 5872 5872 5873 5873 5875 5877 5877 5878 5880 5882 5884 5888 5889 5890 5891 5893 5895 5897 5900 5901 5902 5905 5907 5910 5913 5915 5917 5918 5920 5922 5925 5927 5930 5931 5933 5934 5935 5936 5938 5939 5940 5941
5865 5866 5868 5868 5869 5870 5870 5870 5870 5870 5871 5871 5873 5875 5878 5879 5880 5882 5885 5888 5891 5891 5893 5894 5897 5899 5900 5902 5904 5905 5908 5911 5914 5915 5916 5918 5921 5924 5926 5927 5928 5930 5931 5933 5935 5936 5937 5938 5940
5865 5865 5866 5866 5867 5867 5868 5869 5869 5868 5868 5869 5870 5872 5873 5875 5876 5879 5881 5883 5886 5890 5891 5893 5895 5897 5899 5901 5903 5904 5905 5908 5911 5913 5915 5917 5920 5922 5924 5925 5926 5928 5930 5932 5933 5934 5936 5937 5939
5862 5863 5863 5864 5865 5865 5866 5866 5865 5866 5867 5867 5868 5870 5871 5872 5873 5875 5877 5878 5882 5885 5888 5889 5893 5895 5897 5900 5902 5903 5904 5906 5909 5911 5913 5916 5918 5920 5922 5923 5924 5926 5928 5930 5932 5933 5933 5935 5936
5860 5861 5861 5862 5863 5864 5863 5863 5864 5863 5864 5864 5866 5867 5868 5869 5870 5872 5872 5874 5875 5878 5882 5886 5889 5893 5894 5897 5900 5902 5903 5904 5906 5908 5911 5914 5916 5918 5919 5922 5924 5924 5925 5927 5929 5930 5931 5932 5933
5857 5859 5860 5860 5861 5861 5861 5862 5860 5860 5861 5860 5861 5862 5863 5864 5865 5866 5867 5869 5872 5875 5877 5882 5885 5889 5893 5895 5897 5899 5901 5903 5905 5907 5909 5911 5913 5916 5918 5919 5921 5923 5923 5924 5925 5927 5928 5929 5931